If you wish to contribute or participate in the discussions about articles you are invited to join SKYbrary as a registered user

 Actions

Arak Airport

From SKYbrary Wiki

OIHR
Airport
ICAO: OIHR – IATA: AJK
Summary
Name Arak Airport
Region Middle East
Territory Iran IR.gif
Location Mobarak Abad, Markazi
Serving Arak
Elevation 1,662.074 m5,453 ft1,662.074 m
Coordinates 34° 8' 1.8164", 49° 50' 33.9475"
Runways
Designator Length Width Surface ROPS
8/26 2990 m9,809.711 ft 45 m147.638 ft ASP /


METAR
Observation OIHR 220700Z 15006KT 9999 FEW040 23/07 Q1025
Station Arak
Date/Time 22 September 2018 07:00:00
Wind direction 150°
Wind speed 06 kts
Lowest cloud amount few clouds
Temperature 23°C
Dew point 7°C
Humidity 35%
QNH 1025 hPa
Weather condition n/a

Airport serving Arak, Iran.

Climatology

Continental climate (Köppen climate classification Dsa).

Maps

Terrain

Loading map...

Airport Layout

Loading map...


Accidents & Serious Incidents at or in vicinity of OIHR

None on SKYbrary